Content
SEND FEEDBACK

Daily
Averages
Monthly
Summary
United States of America

PERKINSVILLE, NEW YORK


Home > North America > United States > New York
Elevation: 660 feet     Latitude: 42 33N     Longitude: 077 43W

WEATHER
 
SELECT A DAY
Number of Records: 156,360;   Date Range: 3/1/00 - 9/21/14
 
SHARE

PRINT THIS DATA

[ ← Previous Day ]
WEATHER ALMANAC - FEBRUARY 13, 2013
[ Next Day → ]
[ °C ]   °F
Weather ElementAverageHighLow
Temperature33.4 °F42.1 °F (2:54 pm)26.6 °F (11:41 pm)
Dewpoint22.9 °F26.1 °F (4:54 pm)19.9 °F (8:54 am)
Humidity66.5 %86 % (11:41 pm)45 % (2:54 pm)
Barometer29.83 in29.95 in (1:54 am)29.73 in (3:54 pm)
Wind Speed3.5 mph12.7 mph (3:54 pm)
Weather ElementAverage
Visibility9.7 mi
Wind DirectionSSE (152.1 °)

Weather ElementTotal
Precipitation---
Heating Degree Days30.7 (Base 65)
Averaged from 24 records on February 13, 2013
WEATHER CONDITIONS BREAKOUT
WIND DIRECTION BREAKOUT
WEATHER BY HOUR - FEBRUARY 13, 2013
[ °C ]   °F
Local TimeTemperatureDewpointHumidityBarometerVisibilityWind DirectionWind SpeedGust SpeedPrecipitationEventsConditions
1:54 AM32.0 °F21.0 °F64 %29.95 in10.0 miVariable3.5 mphOvercast
2:54 AM30.9 °F21.9 °F69 %29.93 in10.0 miCalmOvercast
3:54 AM32.0 °F21.9 °F66 %29.91 in10.0 miWNW (300°)3.5 mphOvercast
4:54 AM32.0 °F23.0 °F69 %29.91 in10.0 miCalmOvercast
5:54 AM30.9 °F23.0 °F72 %29.91 in10.0 miCalmOvercast
6:54 AM30.9 °F24.1 °F76 %29.91 in10.0 miCalmOvercast
7:54 AM30.9 °F25.0 °F79 %29.89 in10.0 miCalmOvercast
8:54 AM33.1 °F19.9 °F59 %29.88 in10.0 miVariable4.6 mphOvercast
9:54 AM34.0 °F21.0 °F59 %29.87 in10.0 miWest (270°)3.5 mphOvercast
10:54 AM35.1 °F21.0 °F57 %29.86 in10.0 miNNW (330°)5.8 mphOvercast
11:54 AM37.0 °F21.0 °F52 %29.82 in10.0 miCalmScattered Clouds
12:54 PM37.9 °F21.0 °F51 %29.81 in10.0 miCalmClear
1:54 PM39.9 °F21.9 °F49 %29.76 in10.0 miCalmClear
2:54 PM42.1 °F21.9 °F45 %29.74 in10.0 miSouth (170°)6.9 mphClear
3:54 PM41.0 °F24.1 °F51 %29.73 in10.0 miNW (320°)12.7 mphClear
4:54 PM39.0 °F26.1 °F60 %29.73 in10.0 miNW (320°)8.1 mphClear
5:54 PM36.0 °F25.0 °F64 %29.74 in10.0 miNW (310°)5.8 mphClear
6:54 PM34.0 °F23.0 °F64 %29.77 in10.0 miNorth (350°)4.6 mphClear
7:54 PM32.0 °F24.1 °F73 %29.78 in10.0 miNW (310°)8.1 mphClear
8:54 PM30.9 °F24.1 °F76 %29.80 in10.0 miNW (310°)5.8 mphClear
9:54 PM28.9 °F25.0 °F85 %29.82 in9.0 miNW (320°)6.9 mphClear
10:54 PM28.0 °F24.1 °F85 %29.83 in9.0 miNNW (340°)3.5 mphClear
11:41 PM26.6 °F23.0 °F86 %29.79 in8.0 miCalmMostly Cloudy
11:54 PM27.0 °F23.0 °F85 %29.84 in7.0 miCalmScattered Clouds
Hourly data recorded from KDSV, located miles away from Perkinsville, New York







STORIES FROM OUR PARTNERS